This demonstration page uses our WeatherBlox Daily Observations layout. Learn more.

40.92945, -100.16068

Hourly Observations for August 4, 2018

Temp ( °F °C ) Dew Point ( °F °C ) Humidity (%) Winds ( mph kmh ) Pressure ( in mb ) Visibility ( mi km ) Precip ( " mm )
12:15 am 00:15 Cloudy with Light Rain 71 21.7 68 19.8 89 89 S 16 26 29.8 1009 7 11.26538 0.03 0.762
12:35 am 00:35 Cloudy with Light Rain 71 21.6 67 19.5 88 88 SSE 15 24 29.8 1009 10 16.0934 0.05 1.27
12:55 am 00:55 Partly Cloudy 71 21.5 66 19.1 86 86 S 14 22 29.8 1009 10 16.0934 0.05 1.27
1:15 am 01:15 Partly Cloudy 71 21.5 66 18.7 84 84 S 17 28 29.8 1009 10 16.0934 0 0
1:35 am 01:35 Clear 70 21.3 65 18.6 85 85 SSW 16 26 29.8 1009 10 16.0934 0 0
1:55 am 01:55 Clear 70 21.2 65 18.6 85 85 S 14 22 29.8 1009 10 16.0934 0 0
2:15 am 02:15 Clear 70 21.1 65 18.6 86 86 S 10 17 29.8 1009 10 16.0934 0 0
2:35 am 02:35 Clear 70 21 65 18.5 86 86 S 9 15 29.8 1009 10 16.0934 0 0
2:55 am 02:55 Clear 70 21.2 64 18 82 82 SW 9 15 29.77 1008 10 16.0934 0 0
3:15 am 03:15 Clear 70 21.3 64 17.7 80 80 SSW 14 22 29.77 1008 10 16.0934 0 0
3:35 am 03:35 Clear 70 21.3 64 17.6 80 80 SSW 14 22 29.77 1008 10 16.0934 0 0
3:55 am 03:55 Clear 71 21.5 64 17.5 78 78 SW 13 20 29.77 1008 10 16.0934 0 0
4:15 am 04:15 Clear 71 21.4 64 17.7 80 80 SSW 15 24 29.77 1008 10 16.0934 0 0
4:35 am 04:35 Clear 71 21.5 64 17.9 80 80 SSW 12 19 29.77 1008 10 16.0934 0 0
4:55 am 04:55 Clear 70 21.3 64 18 82 82 SSW 12 19 29.77 1008 10 16.0934 0 0
5:15 am 05:15 Clear 70 21.1 65 18.1 83 83 SW 12 19 29.77 1008 10 16.0934 0 0
5:35 am 05:35 Clear 70 20.9 65 18.2 85 85 SSW 9 15 29.77 1008 10 16.0934 0 0
5:55 am 05:55 Clear 69 20.8 65 18.3 86 86 SSW 7 11 29.77 1008 10 16.0934 0 0
6:15 am 06:15 Clear 69 20.5 65 18.2 87 87 S 8 13 29.8 1009 10 16.0934 0 0
6:35 am 06:35 Clear 69 20.3 65 18.5 89 89 SSE 6 9 29.8 1009 10 16.0934 0 0
6:55 am 06:55 Sunny 68 20.2 65 18.3 89 89 SSE 7 11 29.8 1009 10 16.0934 0 0
7:15 am 07:15 Sunny 68 19.9 65 18.1 89 89 S 9 15 29.8 1009 10 16.0934 0 0
7:35 am 07:35 Sunny 67 19.6 65 18.2 92 92 S 9 15 29.8 1009 10 16.0934 0 0
7:55 am 07:55 Sunny 68 19.8 65 18.2 91 91 S 7 11 29.8 1009 10 16.0934 0 0
8:15 am 08:15 Sunny 69 20.7 66 18.7 88 88 S 8 13 29.8 1009 10 16.0934 0 0
8:35 am 08:35 Sunny 71 21.5 66 18.9 85 85 S 9 15 29.8 1009 10 16.0934 0 0
8:55 am 08:55 Sunny 72 22.1 67 19.2 84 84 S 9 15 29.8 1009 10 16.0934 0 0
9:15 am 09:15 Sunny 73 22.8 67 19.3 81 81 S 9 15 29.77 1008 10 16.0934 0 0
9:35 am 09:35 Partly Cloudy 74 23.5 67 19.5 78 78 SSW 8 13 29.8 1009 10 16.0934 0 0
9:55 am 09:55 Mostly Cloudy 75 24.1 68 19.8 77 77 SSW 10 17 29.8 1009 10 16.0934 0 0
10:15 am 10:15 Mostly Cloudy 76 24.5 67 19.6 74 74 SSW 9 15 29.77 1008 10 16.0934 0 0
10:35 am 10:35 Partly Cloudy 76 24.7 67 19.6 73 73 S 12 19 29.77 1008 10 16.0934 0 0
10:55 am 10:55 Partly Cloudy 78 25.4 68 20 72 72 SSW 12 19 29.77 1008 10 16.0934 0 0
11:15 am 11:15 Sunny 78 25.7 68 20 71 71 S 10 17 29.74 1007 10 16.0934 0 0
11:35 am 11:35 Sunny 79 26.3 69 20.3 70 70 SW 9 15 29.74 1007 10 16.0934 0 0
11:55 am 11:55 Sunny 80 26.8 68 20.1 67 67 SSW 12 19 29.74 1007 10 16.0934 0 0
12:15 pm 12:15 Sunny 82 27.5 69 20.4 65 65 S 7 11 29.74 1007 10 16.0934 0 0
12:35 pm 12:35 Sunny 82 28 69 20.5 64 64 SSW 7 11 29.74 1007 10 16.0934 0 0
12:55 pm 12:55 Sunny 83 28.5 70 20.9 63 63 S 10 17 29.74 1007 10 16.0934 0 0
1:15 pm 13:15 Sunny 85 29.3 70 21.1 61 61 S 8 13 29.71 1006 10 16.0934 0 0
1:35 pm 13:35 Sunny 86 29.8 71 21.4 61 61 S 8 13 29.71 1006 10 16.0934 0 0
1:55 pm 13:55 Sunny 86 30 70 21 59 59 S 8 13 29.71 1006 10 16.0934 0 0
2:15 pm 14:15 Sunny 87 30.5 71 21.6 59 59 S 7 11 29.71 1006 10 16.0934 0 0
2:35 pm 14:35 Sunny 87 30.3 70 21.2 58 58 S 7 11 29.71 1006 10 16.0934 0 0
2:55 pm 14:55 Sunny 87 30.5 71 21.4 58 58 S 8 13 29.71 1006 10 16.0934 0 0
3:15 pm 15:15 Sunny 88 30.9 71 21.5 57 57 S 6 9 29.71 1006 10 16.0934 0 0
3:35 pm 15:35 Sunny 88 31.3 71 21.7 57 57 S 10 17 29.71 1006 10 16.0934 0 0
3:55 pm 15:55 Sunny 88 31.3 71 21.7 57 57 S 10 17 29.71 1006 10 16.0934 0 0
4:15 pm 16:15 Sunny 89 31.5 71 21.6 56 56 SSE 10 17 29.71 1006 10 16.0934 0 0
4:35 pm 16:35 Sunny 89 31.6 72 22.2 57 57 SSE 14 22 29.71 1006 10 16.0934 0 0
4:55 pm 16:55 Sunny 89 31.5 71 21.9 57 57 S 10 17 29.71 1006 10 16.0934 0 0
5:15 pm 17:15 Sunny 89 31.6 72 22.4 58 58 SSE 10 17 29.71 1006 10 16.0934 0 0
5:35 pm 17:35 Sunny 89 31.6 72 22.2 57 57 SSE 13 20 29.68 1005 10 16.0934 0 0
5:55 pm 17:55 Sunny 88 31.3 73 22.6 60 60 SSE 12 19 29.68 1005 10 16.0934 0 0
6:15 pm 18:15 Sunny 88 31 73 22.5 61 61 SSE 16 26 29.68 1005 10 16.0934 0 0
6:35 pm 18:35 Sunny 87 30.5 72 22.4 62 62 SSE 13 20 29.71 1006 10 16.0934 0 0
6:55 pm 18:55 Sunny 85 29.5 72 22.4 66 66 SSE 9 15 29.71 1006 10 16.0934 0 0
7:15 pm 19:15 Sunny 84 28.9 72 22.4 68 68 SSE 7 11 29.74 1007 10 16.0934 0 0
7:35 pm 19:35 Sunny 83 28.2 73 22.8 73 73 SSE 6 9 29.74 1007 10 16.0934 0 0
7:55 pm 19:55 Sunny 82 28 73 22.9 74 74 SSW 5 7 29.74 1007 10 16.0934 0 0
8:15 pm 20:15 Sunny 82 28 73 23 74 74 SE 3 6 29.74 1007 10 16.0934 0 0
8:35 pm 20:35 Sunny 83 28.1 73 22.5 72 72 ESE 7 11 29.71 1006 10 16.0934 0 0
8:55 pm 20:55 Clear 82 27.7 72 22.1 72 72 E 8 13 29.71 1006 10 16.0934 0 0
9:15 pm 21:15 Clear 81 27.3 71 21.8 72 72 SE 7 11 29.74 1007 10 16.0934 0 0
9:35 pm 21:35 Clear 80 26.8 72 22 75 75 ESE 5 7 29.74 1007 10 16.0934 0 0
9:55 pm 21:55 Clear 80 26.5 72 22 76 76 SE 3 6 29.77 1008 10 16.0934 0 0
10:15 pm 22:15 Clear 80 26.5 71 21.6 75 75 Calm 29.77 1008 10 16.0934 0 0
10:35 pm 22:35 Clear 79 26.3 71 21.5 75 75 Calm 29.8 1009 10 16.0934 0 0
10:55 pm 22:55 Clear 79 26.1 70 21.3 75 75 Calm 29.83 1010 10 16.0934 0 0
11:15 pm 23:15 Clear 80 26.4 70 21 72 72 Calm 29.8 1009 10 16.0934 0 0
11:35 pm 23:35 Clear 77 25 71 21.7 82 82 NW 7 11 29.85 1011 10 16.0934 0 0
11:55 pm 23:55 Partly Cloudy 78 25.5 71 21.7 80 80 Calm 29.83 1010 10 16.0934 0 0

Powered by AerisWeather